QPF
0.06 0.05 0.05 0.06 0.06 0.05 0.04 0.05 0.04 0.03 0.03 0.03 0.03 0.03 0.04 0.03 0.03 0.02 0.02 0.04 0.06 0.07 0.10 0.14 0.14 0.13 0.13 0.09 0.07 0.06 0.05 0.04 0.03 0.02 0.01 0.01 0.01 0.00 0.00 0.00 0.00 0.00 0.00
0.06 0.07 0.06 0.05 0.04 0.04 0.03 0.03 0.03 0.02 0.02 0.02 0.02 0.02 0.02 0.01 0.02 0.02 0.02 0.03 0.07 0.09 0.10 0.12 0.15 0.16 0.17 0.16 0.12 0.08 0.07 0.06 0.04 0.03 0.02 0.02 0.01 0.00 0.00 0.00 0.00 0.00 0.00
0.04 0.04 0.05 0.04 0.03 0.01 0.02 0.02 0.02 0.02 0.02 0.02 0.03 0.02 0.02 0.02 0.01 0.02 0.02 0.02 0.03 0.08 0.10 0.10 0.12 0.14 0.17 0.20 0.20 0.17 0.11 0.08 0.06 0.05 0.03 0.02 0.02 0.01 0.01 0.00 0.00 0.00 0.00
0.02 0.02 0.02 0.01 0.01 0.01 0.01 0.01 0.02 0.01 0.01 0.01 0.02 0.03 0.02 0.03 0.04 0.04 0.03 0.04 0.03 0.03 0.07 0.10 0.12 0.12 0.14 0.18 0.21 0.23 0.18 0.13 0.10 0.08 0.05 0.03 0.02 0.02 0.01 0.01 0.00 0.00 0.00
0.01 0.01 0.01 0.00 0.01 0.01 0.01 0.02 0.02 0.01 0.02 0.01 0.01 0.01 0.01 0.02 0.03 0.03 0.03 0.02 0.03 0.03 0.04 0.05 0.10 0.12 0.13 0.17 0.20 0.25 0.24 0.20 0.16 0.13 0.09 0.06 0.04 0.02 0.02 0.01 0.01 0.00 0.00
0.01 0.00 0.00 0.00 0.00 0.01 0.01 0.01 0.01 0.02 0.01 0.01 0.01 0.01 0.01 0.01 0.01 0.02 0.02 0.02 0.03 0.02 0.03 0.02 0.04 0.06 0.12 0.14 0.16 0.21 0.24 0.25 0.21 0.18 0.15 0.11 0.08 0.05 0.02 0.01 0.01 0.01 0.00
0.00 0.00 0.00 0.00 0.00 0.00 0.00 0.00 0.01 0.02 0.01 0.01 0.01 0.01 0.00 0.01 0.01 0.01 0.01 0.01 0.02 0.02 0.02 0.02 0.02 0.03 0.06 0.09 0.10 0.11 0.16 0.20 0.20 0.19 0.17 0.15 0.14 0.10 0.05 0.03 0.02 0.01 0.01
0.00 0.00 0.00 0.00 0.00 0.00 0.00 0.00 0.00 0.00 0.00 0.00 0.00 0.01 0.01 0.01 0.00 0.01 0.01 0.01 0.02 0.02 0.02 0.02 0.01 0.02 0.03 0.04 0.04 0.07 0.12 0.15 0.19 0.19 0.19 0.17 0.16 0.14 0.10 0.07 0.04 0.02 0.01
0.00 0.00 0.00 0.00 0.00 0.00 0.00 0.00 0.00 0.00 0.00 0.00 0.00 0.00 0.00 0.01 0.00 0.00 0.00 0.01 0.02 0.02 0.02 0.02 0.02 0.02 0.03 0.04 0.03 0.06 0.10 0.10 0.14 0.19 0.21 0.20 0.19 0.16 0.14 0.11 0.08 0.05 0.02
0.00 0.00 0.00 0.00 0.00 0.00 0.00 0.00 0.00 0.00 0.00 0.00 0.00 0.00 0.00 0.00 0.00 0.00 0.00 0.00 0.01 0.01 0.01 0.02 0.01 0.02 0.02 0.03 0.03 0.04 0.05 0.07 0.11 0.16 0.20 0.21 0.20 0.17 0.15 0.14 0.14 0.10 0.06
0.00 0.00 0.00 0.00 0.00 0.00 0.00 0.00 0.00 0.00 0.00 0.00 0.00 0.00 0.00 0.00 0.00 0.00 0.00 0.00 0.00 0.00 0.00 0.01 0.01 0.01 0.01 0.02 0.02 0.03 0.05 0.06 0.07 0.12 0.16 0.19 0.19 0.19 0.17 0.16 0.18 0.17 0.12
0.00 0.00 0.00 0.00 0.00 0.00 0.00 0.00 0.00 0.00 0.00 0.00 0.00 0.00 0.00 0.00 0.00 0.00 0.00 0.00 0.00 0.00 0.00 0.00 0.00 0.00 0.00 0.00 0.01 0.01 0.03 0.05 0.06 0.06 0.08 0.12 0.15 0.16 0.18 0.19 0.20 0.22 0.21
0.00 0.00 0.00 0.00 0.00 0.00 0.00 0.00 0.00 0.00 0.00 0.00 0.00 0.00 0.00 0.00 0.00 0.00 0.00 0.00 0.00 0.00 0.00 0.00 0.00 0.00 0.00 0.00 0.00 0.01 0.01 0.02 0.04 0.06 0.04 0.05 0.07 0.10 0.12 0.14 0.19 0.23 0.25
0.00 0.00 0.00 0.00 0.00 0.00 0.00 0.00 0.00 0.00 0.00 0.00 0.00 0.00 0.00 0.00 0.00 0.00 0.00 0.00 0.00 0.00 0.00 0.00 0.00 0.00 0.00 0.00 0.00 0.00 0.00 0.01 0.01 0.03 0.04 0.04 0.04 0.05 0.07 0.08 0.11 0.14 0.17
0.00 0.00 0.00 0.00 0.00 0.00 0.00 0.00 0.00 0.00 0.00 0.00 0.00 0.00 0.00 0.00 0.00 0.00 0.00 0.00 0.00 0.00 0.00 0.00 0.00 0.00 0.00 0.00 0.00 0.00 0.00 0.00 0.00 0.01 0.02 0.04 0.05 0.05 0.05 0.05 0.07 0.09 0.10
0.00 0.00 0.00 0.00 0.00 0.00 0.00 0.00 0.00 0.00 0.00 0.00 0.00 0.00 0.00 0.00 0.00 0.00 0.00 0.00 0.00 0.00 0.00 0.00 0.00 0.00 0.00 0.00 0.00 0.00 0.00 0.00 0.00 0.00 0.01 0.01 0.02 0.03 0.04 0.05 0.06 0.07 0.07
0.00 0.00 0.00 0.00 0.00 0.00 0.00 0.00 0.00 0.00 0.00 0.00 0.00 0.00 0.00 0.00 0.00 0.00 0.00 0.00 0.00 0.00 0.00 0.00 0.00 0.00 0.00 0.00 0.00 0.00 0.00 0.00 0.00 0.00 0.00 0.00 0.01 0.01 0.03 0.03 0.04 0.05 0.05
0.00 0.00 0.00 0.00 0.00 0.00 0.00 0.00 0.00 0.00 0.00 0.00 0.00 0.00 0.00 0.00 0.00 0.00 0.00 0.00 0.00 0.00 0.00 0.00 0.00 0.00 0.00 0.00 0.00 0.00 0.00 0.00 0.00 0.00 0.00 0.00 0.00 0.01 0.01 0.02 0.03 0.04 0.04
0.00 0.00 0.00 0.00 0.00 0.00 0.00 0.00 0.00 0.00 0.00 0.00 0.00 0.00 0.00 0.00 0.00 0.00 0.00 0.00 0.00 0.00 0.00 0.00 0.00 0.00 0.00 0.00 0.00 0.00 0.00 0.00 0.00 0.00 0.00 0.00 0.00 0.01 0.01 0.01 0.02 0.03 0.04
0.00 0.00 0.00 0.00 0.00 0.00 0.00 0.00 0.00 0.00 0.00 0.00 0.00 0.00 0.00 0.00 0.00 0.00 0.00 0.00 0.00 0.00 0.00 0.00 0.00 0.00 0.00 0.00 0.00 0.00 0.00 0.00 0.00 0.00 0.00 0.00 0.00 0.01 0.01 0.01 0.01 0.01 0.02
0.00 0.00 0.00 0.00 0.00 0.00 0.00 0.00 0.00 0.00 0.00 0.00 0.00 0.00 0.00 0.00 0.00 0.00 0.00 0.00 0.00 0.00 0.00 0.00 0.00 0.00 0.00 0.00 0.00 0.00 0.00 0.00 0.00 0.00 0.00 0.00 0.00 0.00 0.00 0.01 0.01 0.01 0.01
0.00 0.00 0.00 0.00 0.00 0.00 0.00 0.00 0.00 0.00 0.00 0.00 0.00 0.00 0.00 0.00 0.00 0.00 0.00 0.00 0.00 0.00 0.00 0.00 0.00 0.00 0.00 0.00 0.00 0.00 0.00 0.00 0.00 0.00 0.00 0.00 0.00 0.00 0.01 0.01 0.01 0.01 0.01
0.00 0.00 0.00 0.00 0.00 0.00 0.00 0.00 0.00 0.00 0.00 0.00 0.00 0.00 0.00 0.00 0.00 0.00 0.00 0.00 0.00 0.00 0.00 0.00 0.00 0.00 0.00 0.00 0.00 0.00 0.00 0.00 0.00 0.00 0.00 0.00 0.00 0.00 0.01 0.01 0.01 0.01 0.01
0.00 0.00 0.00 0.00 0.00 0.00 0.00 0.00 0.00 0.00 0.00 0.00 0.00 0.00 0.00 0.00 0.00 0.00 0.00 0.00 0.00 0.00 0.00 0.00 0.00 0.00 0.00 0.00 0.00 0.00 0.00 0.00 0.00 0.00 0.00 0.00 0.00 0.00 0.01 0.01 0.02 0.01 0.01
0.00 0.00 0.00 0.00 0.00 0.00 0.00 0.00 0.00 0.00 0.00 0.00 0.00 0.00 0.00 0.00 0.00 0.00 0.00 0.00 0.00 0.00 0.00 0.00 0.00 0.00 0.00 0.00 0.00 0.00 0.00 0.00 0.00 0.00 0.00 0.00 0.00 0.00 0.00 0.01 0.02 0.02 0.01
0.00 0.00 0.00 0.00 0.00 0.00 0.00 0.00 0.00 0.00 0.00 0.00 0.00 0.00 0.00 0.00 0.00 0.00 0.00 0.00 0.00 0.00 0.00 0.00 0.00 0.00 0.00 0.00 0.00 0.00 0.00 0.00 0.00 0.00 0.00 0.00 0.00 0.00 0.01 0.01 0.01 0.02 0.01
MSLP
1017.70 1017.80 1017.85 1017.86 1017.88 1017.94 1018.04 1018.18 1018.36 1018.54 1018.68 1018.79 1018.83 1018.83 1018.80 1018.76 1018.74 1018.76 1018.83 1018.94 1019.07 1019.21 1019.35 1019.47 1019.59 1019.70 1019.81 1019.95 1020.13 1020.34 1020.58 1020.86 1021.17 1021.49 1021.82 1022.15 1022.49 1022.81 1023.14 1023.44 1023.72 1023.97 1024.19
1017.84 1017.96 1018.01 1018.04 1018.05 1018.09 1018.17 1018.29 1018.45 1018.61 1018.76 1018.87 1018.93 1018.94 1018.91 1018.85 1018.81 1018.79 1018.80 1018.86 1018.95 1019.06 1019.19 1019.31 1019.44 1019.55 1019.68 1019.81 1019.97 1020.17 1020.39 1020.66 1020.96 1021.28 1021.63 1021.99 1022.36 1022.73 1023.07 1023.39 1023.68 1023.93 1024.15
1017.98 1018.14 1018.23 1018.28 1018.32 1018.37 1018.45 1018.55 1018.69 1018.84 1018.97 1019.07 1019.13 1019.12 1019.08 1018.99 1018.90 1018.82 1018.77 1018.76 1018.78 1018.85 1018.94 1019.04 1019.16 1019.28 1019.40 1019.54 1019.69 1019.87 1020.09 1020.35 1020.65 1020.99 1021.36 1021.76 1022.16 1022.55 1022.93 1023.27 1023.57 1023.83 1024.05
1018.12 1018.32 1018.47 1018.58 1018.67 1018.74 1018.83 1018.93 1019.05 1019.18 1019.29 1019.37 1019.40 1019.37 1019.30 1019.17 1019.03 1018.88 1018.75 1018.65 1018.59 1018.58 1018.61 1018.67 1018.76 1018.87 1018.99 1019.12 1019.27 1019.45 1019.67 1019.93 1020.24 1020.60 1021.00 1021.42 1021.85 1022.28 1022.68 1023.05 1023.37 1023.65 1023.90
1018.24 1018.49 1018.71 1018.88 1019.02 1019.15 1019.26 1019.36 1019.47 1019.57 1019.65 1019.70 1019.71 1019.66 1019.55 1019.39 1019.19 1018.97 1018.76 1018.57 1018.42 1018.32 1018.27 1018.27 1018.30 1018.38 1018.47 1018.59 1018.74 1018.92 1019.14 1019.41 1019.73 1020.11 1020.53 1020.99 1021.45 1021.91 1022.34 1022.73 1023.08 1023.39 1023.66
1018.33 1018.62 1018.90 1019.14 1019.34 1019.51 1019.65 1019.77 1019.86 1019.94 1020.00 1020.03 1020.02 1019.95 1019.83 1019.64 1019.40 1019.13 1018.84 1018.57 1018.32 1018.12 1017.98 1017.89 1017.86 1017.88 1017.94 1018.03 1018.16 1018.34 1018.56 1018.83 1019.17 1019.56 1020.00 1020.47 1020.96 1021.44 1021.89 1022.31 1022.69 1023.03 1023.34
1018.40 1018.72 1019.03 1019.32 1019.58 1019.79 1019.95 1020.08 1020.17 1020.24 1020.29 1020.30 1020.29 1020.22 1020.10 1019.92 1019.67 1019.36 1019.02 1018.68 1018.35 1018.05 1017.81 1017.63 1017.52 1017.46 1017.46 1017.52 1017.62 1017.77 1017.98 1018.25 1018.59 1018.98 1019.42 1019.90 1020.40 1020.89 1021.36 1021.80 1022.20 1022.57 1022.91
1018.46 1018.77 1019.10 1019.42 1019.72 1019.96 1020.14 1020.28 1020.37 1020.43 1020.48 1020.50 1020.50 1020.46 1020.37 1020.21 1019.98 1019.68 1019.32 1018.93 1018.53 1018.15 1017.82 1017.54 1017.33 1017.20 1017.13 1017.12 1017.18 1017.30 1017.48 1017.72 1018.04 1018.41 1018.84 1019.31 1019.79 1020.28 1020.75 1021.20 1021.62 1022.01 1022.38
1018.51 1018.80 1019.13 1019.47 1019.77 1020.03 1020.22 1020.36 1020.46 1020.52 1020.57 1020.62 1020.65 1020.66 1020.62 1020.51 1020.33 1020.05 1019.70 1019.30 1018.86 1018.42 1018.01 1017.65 1017.35 1017.12 1016.97 1016.90 1016.89 1016.95 1017.08 1017.29 1017.56 1017.90 1018.30 1018.73 1019.19 1019.65 1020.10 1020.54 1020.96 1021.37 1021.76
1018.56 1018.83 1019.15 1019.48 1019.78 1020.04 1020.23 1020.37 1020.46 1020.53 1020.60 1020.67 1020.74 1020.80 1020.82 1020.79 1020.66 1020.44 1020.13 1019.73 1019.28 1018.81 1018.34 1017.91 1017.53 1017.23 1017.00 1016.84 1016.76 1016.75 1016.82 1016.97 1017.18 1017.47 1017.81 1018.19 1018.60 1019.02 1019.45 1019.86 1020.26 1020.66 1021.06
1018.62 1018.87 1019.17 1019.49 1019.78 1020.03 1020.21 1020.34 1020.43 1020.50 1020.57 1020.67 1020.77 1020.88 1020.97 1021.00 1020.94 1020.79 1020.52 1020.16 1019.72 1019.23 1018.74 1018.26 1017.83 1017.45 1017.15 1016.92 1016.76 1016.68 1016.68 1016.75 1016.90 1017.11 1017.39 1017.71 1018.06 1018.44 1018.81 1019.19 1019.57 1019.95 1020.33
1018.69 1018.93 1019.22 1019.52 1019.80 1020.03 1020.20 1020.31 1020.38 1020.45 1020.52 1020.62 1020.75 1020.89 1021.02 1021.10 1021.11 1021.01 1020.79 1020.48 1020.07 1019.60 1019.10 1018.61 1018.14 1017.72 1017.36 1017.06 1016.84 1016.69 1016.61 1016.61 1016.68 1016.83 1017.04 1017.29 1017.59 1017.91 1018.24 1018.57 1018.91 1019.26 1019.62
1018.74 1018.99 1019.27 1019.56 1019.83 1020.04 1020.19 1020.28 1020.33 1020.38 1020.43 1020.53 1020.65 1020.80 1020.95 1021.06 1021.11 1021.05 1020.89 1020.62 1020.26 1019.83 1019.35 1018.87 1018.40 1017.96 1017.56 1017.22 1016.95 1016.73 1016.59 1016.52 1016.53 1016.60 1016.75 1016.95 1017.18 1017.45 1017.73 1018.03 1018.32 1018.63 1018.96
1018.77 1019.03 1019.31 1019.59 1019.84 1020.04 1020.16 1020.23 1020.26 1020.28 1020.31 1020.37 1020.48 1020.61 1020.75 1020.87 1020.93 1020.91 1020.79 1020.57 1020.26 1019.87 1019.45 1019.00 1018.55 1018.11 1017.71 1017.35 1017.04 1016.78 1016.58 1016.46 1016.40 1016.42 1016.51 1016.66 1016.85 1017.07 1017.31 1017.57 1017.83 1018.10 1018.38
1018.76 1019.02 1019.31 1019.58 1019.81 1019.99 1020.09 1020.14 1020.14 1020.13 1020.13 1020.16 1020.22 1020.33 1020.44 1020.54 1020.60 1020.59 1020.50 1020.32 1020.07 1019.75 1019.38 1018.98 1018.58 1018.18 1017.79 1017.43 1017.10 1016.81 1016.57 1016.40 1016.30 1016.27 1016.31 1016.41 1016.57 1016.76 1016.97 1017.19 1017.41 1017.64 1017.88
1018.68 1018.95 1019.23 1019.48 1019.70 1019.86 1019.95 1019.97 1019.96 1019.92 1019.88 1019.88 1019.90 1019.96 1020.04 1020.11 1020.16 1020.15 1020.08 1019.94 1019.74 1019.48 1019.18 1018.85 1018.50 1018.15 1017.79 1017.45 1017.12 1016.82 1016.55 1016.35 1016.21 1016.14 1016.14 1016.20 1016.32 1016.48 1016.66 1016.86 1017.05 1017.24 1017.44
1018.53 1018.78 1019.04 1019.28 1019.48 1019.62 1019.70 1019.72 1019.69 1019.63 1019.58 1019.55 1019.54 1019.56 1019.60 1019.65 1019.67 1019.66 1019.60 1019.50 1019.34 1019.14 1018.91 1018.65 1018.36 1018.06 1017.75 1017.43 1017.11 1016.80 1016.53 1016.29 1016.12 1016.01 1015.97 1016.00 1016.09 1016.21 1016.37 1016.53 1016.70 1016.86 1017.02
1018.30 1018.53 1018.76 1018.98 1019.16 1019.29 1019.36 1019.37 1019.34 1019.29 1019.23 1019.19 1019.16 1019.16 1019.18 1019.20 1019.21 1019.19 1019.14 1019.06 1018.94 1018.79 1018.62 1018.41 1018.19 1017.94 1017.67 1017.38 1017.08 1016.77 1016.49 1016.23 1016.02 1015.88 1015.80 1015.79 1015.83 1015.92 1016.05 1016.18 1016.32 1016.45 1016.58
1018.00 1018.19 1018.40 1018.58 1018.75 1018.87 1018.94 1018.96 1018.94 1018.91 1018.86 1018.82 1018.80 1018.79 1018.79 1018.80 1018.80 1018.78 1018.73 1018.67 1018.57 1018.46 1018.32 1018.16 1017.98 1017.78 1017.55 1017.29 1017.01 1016.71 1016.42 1016.15 1015.92 1015.73 1015.61 1015.55 1015.55 1015.59 1015.67 1015.77 1015.88 1015.98 1016.09
1017.62 1017.79 1017.96 1018.13 1018.28 1018.39 1018.47 1018.50 1018.51 1018.49 1018.47 1018.45 1018.44 1018.44 1018.45 1018.45 1018.44 1018.42 1018.37 1018.31 1018.22 1018.12 1018.00 1017.87 1017.73 1017.56 1017.36 1017.13 1016.88 1016.60 1016.31 1016.03 1015.78 1015.56 1015.40 1015.28 1015.23 1015.22 1015.25 1015.31 1015.38 1015.46 1015.53
1017.18 1017.33 1017.48 1017.64 1017.78 1017.89 1017.98 1018.02 1018.05 1018.06 1018.06 1018.06 1018.08 1018.09 1018.11 1018.11 1018.10 1018.07 1018.02 1017.94 1017.85 1017.75 1017.64 1017.52 1017.39 1017.24 1017.07 1016.88 1016.65 1016.40 1016.13 1015.86 1015.59 1015.35 1015.15 1014.99 1014.88 1014.82 1014.80 1014.81 1014.84 1014.89 1014.94
1016.68 1016.83 1016.98 1017.13 1017.27 1017.38 1017.47 1017.52 1017.56 1017.58 1017.61 1017.63 1017.66 1017.69 1017.72 1017.73 1017.72 1017.68 1017.62 1017.52 1017.42 1017.30 1017.17 1017.05 1016.93 1016.80 1016.66 1016.50 1016.31 1016.10 1015.86 1015.61 1015.36 1015.11 1014.88 1014.69 1014.53 1014.42 1014.35 1014.31 1014.30 1014.32 1014.35
1016.13 1016.30 1016.46 1016.62 1016.75 1016.86 1016.94 1016.99 1017.02 1017.05 1017.08 1017.11 1017.16 1017.20 1017.24 1017.26 1017.25 1017.20 1017.12 1017.01 1016.88 1016.73 1016.59 1016.46 1016.33 1016.22 1016.10 1015.98 1015.84 1015.68 1015.49 1015.28 1015.06 1014.82 1014.59 1014.38 1014.19 1014.04 1013.92 1013.84 1013.80 1013.79 1013.80
1015.56 1015.75 1015.94 1016.10 1016.22 1016.31 1016.37 1016.40 1016.41 1016.42 1016.44 1016.48 1016.52 1016.57 1016.62 1016.65 1016.64 1016.59 1016.50 1016.37 1016.22 1016.05 1015.89 1015.74 1015.62 1015.51 1015.42 1015.34 1015.26 1015.16 1015.03 1014.88 1014.70 1014.50 1014.29 1014.07 1013.87 1013.69 1013.54 1013.43 1013.36 1013.32 1013.32
1014.98 1015.20 1015.40 1015.55 1015.66 1015.72 1015.74 1015.72 1015.70 1015.68 1015.68 1015.70 1015.75 1015.80 1015.86 1015.89 1015.89 1015.85 1015.76 1015.63 1015.46 1015.29 1015.11 1014.96 1014.83 1014.74 1014.68 1014.63 1014.60 1014.56 1014.50 1014.41 1014.29 1014.13 1013.95 1013.75 1013.55 1013.36 1013.20 1013.06 1012.96 1012.91 1012.89
1014.43 1014.66 1014.85 1014.98 1015.06 1015.07 1015.03 1014.97 1014.89 1014.83 1014.80 1014.80 1014.84 1014.90 1014.97 1015.02 1015.05 1015.02 1014.95 1014.82 1014.66 1014.49 1014.31 1014.16 1014.03 1013.95 1013.91 1013.91 1013.92 1013.93 1013.93 1013.90 1013.83 1013.72 1013.57 1013.40 1013.21 1013.02 1012.85 1012.70 1012.59 1012.51 1012.48
Thickness
5723 5721 5720 5718 5718 5717 5716 5715 5714 5714 5713 5713 5713 5713 5713 5713 5713 5714 5715 5716 5717 5717 5717 5717 5716 5716 5715 5715 5715 5714 5714 5713 5713 5713 5712 5711 5711 5710 5709 5709 5708 5707 5707
5720 5718 5717 5715 5715 5714 5713 5712 5711 5711 5710 5710 5710 5710 5710 5710 5710 5711 5712 5713 5714 5715 5715 5715 5714 5714 5714 5713 5713 5713 5713 5712 5712 5711 5711 5710 5710 5709 5709 5708 5707 5707 5706
5717 5715 5714 5713 5712 5711 5710 5709 5708 5707 5707 5706 5706 5707 5707 5707 5708 5708 5709 5710 5711 5712 5713 5713 5713 5713 5712 5712 5712 5711 5711 5711 5710 5710 5710 5709 5709 5708 5708 5707 5707 5706 5705
5714 5713 5711 5710 5709 5708 5707 5706 5704 5702 5702 5701 5702 5703 5703 5704 5704 5705 5706 5707 5708 5709 5710 5711 5711 5711 5710 5710 5710 5710 5710 5710 5709 5709 5708 5708 5708 5707 5707 5707 5706 5705 5705
5712 5710 5709 5707 5707 5705 5704 5703 5700 5698 5697 5697 5698 5699 5699 5700 5701 5702 5703 5704 5705 5706 5707 5708 5708 5709 5709 5709 5709 5709 5709 5709 5708 5708 5707 5707 5707 5706 5706 5706 5705 5705 5704
5709 5708 5706 5705 5704 5702 5700 5698 5696 5694 5693 5692 5694 5695 5695 5696 5697 5699 5700 5700 5702 5703 5704 5704 5705 5706 5707 5707 5707 5707 5708 5708 5707 5707 5707 5706 5706 5706 5705 5705 5705 5704 5704
5707 5706 5704 5702 5701 5698 5696 5695 5693 5690 5689 5688 5688 5688 5690 5692 5693 5694 5695 5696 5697 5698 5699 5700 5701 5702 5704 5705 5705 5706 5706 5707 5707 5707 5706 5706 5705 5705 5705 5704 5704 5704 5703
5705 5704 5702 5700 5698 5696 5693 5692 5690 5687 5685 5684 5682 5681 5679 5682 5686 5688 5689 5690 5691 5693 5694 5695 5697 5698 5700 5701 5702 5703 5704 5704 5705 5705 5705 5704 5704 5704 5704 5704 5703 5703 5703
5703 5702 5700 5698 5695 5693 5691 5689 5687 5684 5681 5680 5679 5677 5673 5672 5675 5680 5682 5683 5684 5686 5687 5689 5691 5693 5695 5696 5698 5699 5701 5702 5703 5702 5703 5703 5702 5702 5703 5703 5703 5702 5702
5702 5700 5698 5696 5693 5691 5689 5687 5685 5682 5679 5676 5675 5673 5672 5671 5668 5669 5674 5676 5678 5679 5680 5683 5685 5687 5689 5691 5692 5694 5696 5698 5699 5700 5700 5701 5701 5701 5701 5701 5701 5701 5702
5700 5699 5696 5694 5691 5689 5687 5684 5682 5679 5677 5674 5672 5670 5668 5665 5664 5663 5663 5667 5670 5672 5674 5675 5677 5679 5682 5684 5686 5688 5690 5692 5694 5695 5696 5697 5698 5699 5699 5699 5700 5700 5701
5698 5697 5695 5692 5690 5687 5685 5682 5680 5677 5674 5672 5669 5667 5665 5662 5660 5658 5657 5658 5659 5664 5667 5669 5670 5672 5674 5676 5679 5682 5684 5685 5687 5689 5691 5692 5695 5696 5697 5697 5698 5699 5699
5696 5695 5694 5691 5688 5686 5683 5680 5677 5675 5672 5669 5666 5664 5662 5660 5657 5655 5652 5652 5652 5655 5658 5661 5663 5664 5666 5668 5670 5673 5676 5678 5679 5682 5684 5686 5689 5691 5693 5694 5695 5696 5697
5696 5694 5692 5689 5687 5684 5681 5678 5675 5672 5670 5667 5664 5661 5658 5656 5653 5651 5649 5647 5645 5646 5648 5651 5655 5656 5657 5659 5662 5664 5666 5669 5671 5674 5677 5679 5682 5685 5687 5689 5691 5693 5694
5695 5693 5690 5687 5684 5682 5679 5676 5672 5670 5667 5664 5661 5658 5655 5652 5650 5647 5645 5642 5640 5639 5640 5642 5644 5648 5649 5651 5653 5655 5657 5660 5663 5666 5668 5671 5674 5677 5680 5682 5685 5687 5689
5693 5690 5687 5685 5682 5679 5676 5673 5670 5667 5663 5660 5657 5654 5651 5648 5646 5643 5640 5637 5635 5633 5633 5635 5635 5637 5639 5642 5644 5646 5648 5651 5654 5657 5660 5663 5666 5669 5672 5675 5678 5681 5684
5690 5687 5685 5682 5679 5676 5673 5670 5667 5664 5660 5657 5654 5650 5648 5644 5641 5638 5635 5632 5630 5627 5627 5629 5628 5629 5629 5632 5634 5637 5639 5642 5645 5648 5651 5654 5658 5661 5665 5668 5671 5675 5678
5688 5685 5682 5679 5676 5674 5670 5667 5664 5661 5657 5654 5651 5647 5644 5641 5637 5633 5630 5627 5625 5622 5621 5621 5621 5621 5621 5622 5624 5626 5629 5632 5635 5639 5642 5646 5649 5653 5657 5661 5664 5668 5672
5685 5683 5679 5676 5674 5671 5667 5664 5661 5657 5654 5651 5647 5643 5640 5636 5633 5629 5625 5622 5619 5618 5615 5613 5614 5613 5613 5613 5614 5616 5619 5621 5625 5629 5632 5636 5640 5644 5649 5653 5657 5661 5665
5683 5680 5677 5674 5671 5668 5665 5661 5657 5654 5650 5647 5643 5640 5636 5632 5629 5625 5621 5617 5614 5611 5608 5606 5606 5605 5604 5604 5604 5605 5608 5611 5614 5618 5622 5626 5630 5635 5639 5644 5649 5653 5657
5682 5678 5675 5671 5668 5665 5662 5658 5654 5650 5646 5643 5639 5636 5633 5629 5626 5621 5618 5614 5609 5606 5602 5600 5599 5598 5597 5595 5595 5597 5598 5600 5603 5607 5611 5616 5620 5625 5629 5634 5638 5644 5649
5678 5675 5671 5668 5665 5662 5660 5656 5651 5647 5643 5638 5635 5632 5629 5625 5622 5618 5614 5610 5606 5601 5598 5595 5594 5592 5591 5589 5588 5588 5588 5590 5594 5597 5599 5605 5608 5614 5619 5624 5630 5635 5641
5674 5671 5668 5664 5661 5659 5656 5652 5648 5643 5639 5635 5631 5628 5624 5622 5618 5614 5610 5606 5602 5598 5594 5591 5589 5587 5586 5584 5582 5581 5580 5582 5585 5587 5587 5595 5599 5604 5610 5615 5621 5627 5633
5670 5667 5664 5661 5657 5655 5652 5648 5644 5639 5635 5632 5628 5624 5620 5617 5613 5608 5604 5600 5596 5593 5590 5587 5585 5584 5581 5579 5576 5575 5574 5575 5577 5578 5578 5584 5591 5595 5602 5607 5613 5619 5625
5666 5663 5660 5656 5653 5651 5648 5644 5639 5634 5631 5628 5625 5621 5616 5613 5609 5603 5598 5594 5591 5589 5586 5583 5580 5578 5575 5573 5569 5567 5567 5567 5571 5573 5572 5576 5583 5587 5594 5601 5607 5612 5617
5661 5658 5655 5652 5649 5647 5644 5640 5634 5629 5626 5624 5622 5618 5613 5609 5605 5599 5593 5589 5586 5585 5580 5577 5574 5572 5569 5567 5564 5563 5563 5562 5564 5567 5569 5569 5575 5578 5586 5594 5598 5603 5609